Content
SEND FEEDBACK

Daily
Averages
Monthly
Summary
Canada

RUSSELL, ONTARIO


Home > North America > Canada > Ontario
Elevation: 250 feet     Latitude: 45 15N     Longitude: 75 21W

WEATHER
 
SELECT A DAY
Number of Records: 191,595;   Date Range: 1/1/95 - 7/20/14
 
SHARE

PRINT THIS DATA

[ ← Previous Day ]
WEATHER ALMANAC - FEBRUARY 13, 2013
[ Next Day → ]
[ °C ]   °F
Weather ElementAverageHighLow
Temperature28.9 °F32 °F (12:00 pm)26 °F (7:00 am)
Dewpoint24.2 °F26.6 °F (1:00 am)21.2 °F (8:00 pm)
Humidity82 %93 % (1:00 am)62 % (1:00 pm)
Barometer29.81 in29.85 in (7:00 am)29.76 in (5:00 pm)
Wind Speed3.3 mph8.1 mph (1:00 am)
Weather ElementAverage
Visibility11.9 mi
Wind DirectionSSE (150.4 °)

Weather ElementTotal
Precipitation---
Heating Degree Days36 (Base 65)
Averaged from 28 records on February 13, 2013
WEATHER CONDITIONS BREAKOUT
WIND DIRECTION BREAKOUT
WEATHER BY HOUR - FEBRUARY 13, 2013
[ °C ]   °F
Local TimeTemperatureDewpointHumidityBarometerVisibilityWind DirectionWind SpeedGust SpeedPrecipitationEventsConditions
1:00 AM29.0 °F26.0 °F84 %29.83 in10.0 miWest (280°)6.9 mphSnowLight Snow
1:00 AM28.4 °F26.6 °F93 %29.83 in10.0 miWest (280°)8.1 mphSnowLight Snow
1:41 AM28.4 °F26.6 °F93 %29.83 in10.0 miNW (310°)6.9 mphSnowLight Snow
2:00 AM28.4 °F24.8 °F86 %29.84 in10.0 miWNW (290°)6.9 mphOvercast
3:00 AM28.4 °F24.8 °F86 %29.84 in10.0 miWest (280°)4.6 mphSnowLight Snow
4:00 AM26.6 °F23.0 °F86 %29.84 in10.0 miWNW (290°)6.9 mphSnowLight Snow
5:00 AM26.6 °F23.0 °F86 %29.84 in10.0 miWest (260°)3.5 mphSnowLight Snow
6:00 AM26.6 °F23.0 °F86 %29.84 in10.0 miWSW (250°)4.6 mphSnowLight Snow
7:00 AM26.0 °F23.0 °F83 %29.85 in10.0 miWest (270°)3.5 mphSnowLight Snow
7:00 AM26.6 °F23.0 °F86 %29.84 in10.0 miWest (260°)3.5 mphSnowLight Snow
8:00 AM26.6 °F23.0 °F86 %29.84 in10.0 miCalmSnowLight Snow
9:00 AM26.6 °F23.0 °F86 %29.84 in10.0 miCalmSnowLight Snow
10:00 AM28.4 °F23.0 °F80 %29.83 in12.0 miCalmSnowLight Snow
11:00 AM30.2 °F23.0 °F75 %29.83 in12.0 miCalmSnowLight Snow
12:00 PM32.0 °F24.8 °F75 %29.81 in12.0 miCalmSnowLight Snow
1:00 PM32.0 °F24.0 °F62 %29.79 in28.0 miCalmSnowLight Snow
1:00 PM32.0 °F24.8 °F75 %29.79 in10.0 miCalmSnowLight Snow
2:00 PM30.2 °F26.6 °F86 %29.77 in12.0 miSE (130°)4.6 mphSnowLight Snow
3:00 PM30.2 °F26.6 °F86 %29.77 in12.0 miESE (110°)6.9 mphSnowLight Snow
4:00 PM30.2 °F26.6 °F86 %29.77 in12.0 miESE (120°)3.5 mphSnowLight Snow
5:00 PM30.2 °F26.6 °F86 %29.76 in12.0 miENE (70°)2.3 mphSnowLight Snow
6:00 PM30.2 °F26.6 °F86 %29.76 in12.0 miCalmOvercast
7:00 PM28.0 °F25.0 °F85 %29.76 in12.0 miESE (120°)3.5 mphPartly Cloudy
7:00 PM28.4 °F24.8 °F86 %29.76 in12.0 miESE (120°)3.5 mphOvercast
8:00 PM30.2 °F21.2 °F69 %29.77 in12.0 miCalmOvercast
9:00 PM30.2 °F21.2 °F69 %29.77 in12.0 miSSW (210°)3.5 mphOvercast
10:00 PM30.2 °F23.0 °F75 %29.77 in15.0 miSSW (200°)5.8 mphOvercast
11:00 PM28.4 °F21.2 °F74 %29.77 in15.0 miSSW (210°)4.6 mphOvercast
Hourly data recorded from CYOW, located miles away from Russell, Ontario







STORIES FROM OUR PARTNERS